Regional Weather Roundup
Issued by NWS

Home | Current Version | Previous Version | Text Only | Print | Product List | Glossary Off
Versions: 1 2 3 4 5 6 7 8 9 10 11 12 13 14 15 16 17 18 19 20 21 22 23 24 25 26 27 28 29 30 31 32 33 34 35 36 37 38 39 40 41 42 43 44 45 46 47 48 49 50

000
ASUS45 KBOU 281010
RWRCO

WEATHER ROUNDUP FOR COLORADO
NATIONAL WEATHER SERVICE DENVER/BOULDER CO
400 AM MDT TUE JUL 28 2015

NOTE: "FAIR" INDICATES FEW OR NO CLOUDS BELOW 12000 FEET WITH NO
SIGNIFICANT WEATHER AND/OR OBSTRUCTIONS TO VISIBILITY.

COZ001>005-013-030-031-281100-
...NORTHWEST COLORADO...

CITY           SKY/WX    TMP DP  RH WIND       PRES   REMARKS
CRAIG          CLEAR     42  33  70 CALM      30.24S
HAYDEN         NOT AVBL
MEEKER         CLEAR     49  35  58 VRB3      30.23R
MOUNT WERNER   NOT AVBL
STEAMBOAT SPGS CLEAR     45  35  68 CALM      30.26S
WALDEN         CLEAR     36  30  80 SE6       30.29S
$$

COZ006>008-011-281100-
...WEST CENTRAL VALLEYS...

CITY           SKY/WX    TMP DP  RH WIND       PRES   REMARKS
GRAND JUNCTION CLEAR     57  30  35 CALM      30.07R
MONTROSE       CLEAR     57  35  43 SE8       30.15R
EAGLE          CLEAR     52  34  50 CALM      30.23R
RIFLE          CLEAR     55  36  48 NE5       30.15R
DELTA          CLEAR     55  36  49 NE5       30.09R
NUCLA          CLEAR     59  30  33 NE3       30.17R
$$

COZ017>023-064>068-281100-
...SOUTHWEST COLORADO...

CITY           SKY/WX    TMP DP  RH WIND       PRES   REMARKS
DURANGO        CLEAR     52  36  54 CALM      30.17S
CORTEZ         CLEAR     47  36  65 NE3       30.13S
PAGOSA SPRINGS CLEAR     49  37  63 CALM      30.26R
TELLURIDE      CLEAR     52  32  46 SE5       30.38S
WOLF CREEK PAS NOT AVBL
$$

COZ009-010-012-014-032>034-037-058>063-281100-
...CENTRAL COLORADO...

CITY           SKY/WX    TMP DP  RH WIND       PRES   REMARKS
ASPEN          CLEAR     47  35  63 S6        30.27R
BUENA VISTA    CLEAR     49  29  47 NW5       30.25R
COPPER MTN     CLEAR     46  25  42 W10G17    30.52F
BERTHOUD PASS  FAIR      41  32  70 W22G31    30.54R
COTTONWOOD PAS CLEAR     61  14  16 W8        30.37S
GUNNISON       NOT AVBL
KREMMLING      CLEAR     46  30  53 CALM      30.29R
LEADVILLE      CLEAR     42  25  50 NE5       30.37S
MONARCH PASS   CLEAR     46  27  46 W31       30.61F
SALIDA         CLEAR     59  30  33 SW7       30.28R
SUNLIGHT       CLEAR     50  28  43 CALM      30.48R
WILKERSON PASS CLEAR     50  21  32 SW13G22   30.49R
$$

COZ069>075-281100-
...SAN LUIS VALLEY/SANGRE DE CRISTO MOUNTAINS...

CITY           SKY/WX    TMP DP  RH WIND       PRES   REMARKS
ALAMOSA        CLEAR     47  41  80 CALM      30.23R
LA VETA PASS   PTCLDY    52  36  54 MISG      30.41R
SAGUACHE       CLEAR     54  36  50 N13       30.26S
$$

COZ035-036-038>040-281100-
...NORTHERN COLORADO FRONT RANGE...

CITY           SKY/WX    TMP DP  RH WIND       PRES   REMARKS
DENVER INTL AP CLEAR     57  39  51 SE12      30.05R
DMNS CITY PARK   N/A     63  39  42 SE8G14    30.06R
AURORA         PTCLDY    61  39  44 SE8       30.07R
FRONT RANGE AP NOT AVBL
ERIE MUNI ARPT CLEAR     65  39  38 S8G21     30.03R
BOULDER MUN AP CLEAR     64  37  36 CALM      30.02R
CENTENNIAL     CLEAR     63  39  41 SE8       30.09R
BROOMFIELD     CLEAR     61  41  48 S5        30.07R
FORT COLLINS   CLEAR     63  43  48 CALM      30.02R
LONGMONT       CLEAR     59  46  61 N5        30.03R
$$

COZ041-046-047-076>085-087-088-281100-
...PIKES PEAK/PALMER DIVIDE AND SOUTHERN FOOTHILLS...

CITY           SKY/WX    TMP DP  RH WIND       PRES   REMARKS
COLO. SPRINGS  PTCLDY    69  33  26 N13       30.07R
A. F. ACADEMY  CLEAR     67  28  23 N3        30.10R
ELLICOTT       CLEAR    N/A N/A N/A NE17G25   30.07R
FALCON         CLEAR     61  37  40 N14G20    30.15R
FORT CARSON    PTCLDY    63  39  42 N3        30.03R
LIMON          CLEAR     62  39  42 N16       30.05R
MONUMENT HILL  CLEAR     54  37  54 SE7       30.17R
TRINIDAD       PTCLDY    69  47  45 W6        30.06R
$$

COZ042>045-048>051-090-091-281100-
...NORTHEAST COLORADO...

CITY           SKY/WX    TMP DP  RH WIND       PRES   REMARKS
GREELEY ARPT   CLEAR     66  34  30 NW13G23   30.00R
AKRON            N/A    N/A N/A N/A MISG      30.01R
BURLINGTON     CLEAR     70  50  49 NW15      29.94R
WRAY           CLEAR     72  48  42 NW14G24   29.92R
STERLING       NOT AVBL
HOLYOKE        CLEAR     73  46  38 N17G28    29.93R
FORT MORGAN    CLEAR     64  28  25 N18       30.00R
$$

COZ086-089-092>099-281100-
...SOUTHEAST COLORADO...

CITY           SKY/WX    TMP DP  RH WIND       PRES   REMARKS
PUEBLO         CLEAR     66  41  40 NW5       29.96R
LA JUNTA       PTCLDY    71  50  47 NW13      29.96R
LAMAR          CLEAR     74  55  51 W12       29.85R
SPRINGFIELD      N/A     69  58  67 SW12      29.95R
$$



USA.gov is the U.S. government's official web portal to all federal, state and local government web resources and services.